THORAD AGENA D DEB, 6765

Orbit data source: Space-Track

THORAD AGENA D DEB, 6765 is space debris in SSO originally from a launch on Wed, 08 Apr 1970 UTC launched from the Air Force Western Test Range (AFWTR). Debris objects in space refer to the collection of defunct objects orbiting the Earth. Examples of debris include non-operational satellites, rocket bodies, and fragments generated from explosions, collisions, or faulty payload assembly.

Loading next visibility...
Identifier
6765, 1970-025NG
Orbit
SSO
Country
Flag of USUS
Related business
Manufacturer
Unknown
Mission
Spacecraft
Bus & Motor
Unknown
Mass
Unknown
Launch date (UTC)
1970-04-08 (56 years ago)
Launch vehicle
Unknown
Launch site
Air Force Western Test Range (AFWTR)
Object type
Payload
Rocket body
Debris
Shape & HBR
Unknown shape, 0.1 m
Radar Cross Section
Small (<0.1 m²)

Expand to show TLE details & history
Last TLE update: 2 days ago

TLE from 2 days ago
0 THORAD AGENA D DEB
1  6765U 70025NG  25344.63044278  .00000309  00000-0  50766-3 0  9999
2  6765  99.8098 269.5144 0016224  86.9657  33.6058 13.55699694745150
Epoch: 2025-12-10T15:07Z
TLE epoch observation values (Epoch: 2025-12-10T15:07:50.256Z)
Latitude
58.03771°
Longitude
158.95984°
Altitude
1,051.017 km
Speed
7.337 km/s
True Right ascension
07h 02m 04s
True Declination
57° 53' 21"
Sunlit
Object was in full shadow at epoch
Visualization orbit readout
Latitude
Unknown
Longitude
Unknown
Altitude
Unknown
Speed
Unknown
Apparent Right ascension
Unknown
Apparent Declination
Unknown
Sunlit
N/A
Visualization observer readout
Local Sidereal Time
22:22:26
Azimuth
Unknown
Elevation
Unknown
Doppler factor
Unknown
Orbital elements
Apogee altitude
1,060.71 km
Perigee altitude
1,036.612 km
Semi-major axis
7,426.798 km
Eccentricity
0.00162
Inclination
99.8098°
RAAN
269.5144°
Arg. of periapsis
86.9657°
True anomaly
33.70887°
Mean anomaly
33.6058°
Eccentric anomaly
33.65732°
Mean motion
3.3911 °/min
Orbital period
106.16 mins
BSTAR
0.00050766
Loading maneuver chart data...
Computing Atmospheric mass density...

Documentation

Showing up to 5 results
|